Location: Niles Junction
(37.5763°N, 121.9714°W)
Time: 03:55:12
(UTC+00:00)

H-2A R/B - Pass Details

Date: 29 October 2020
Orbit: 577 x 656 km, 98.5° (Epoch: 23 November)

Event Time Altitude Azimuth Distance (km) Brightness Sun altitude
Rises 13:20:32 0° 207° (SSW) 2,951 5.3 -14.4°
Reaches altitude 10° 13:23:36 10° 230° (SW) 2,036 4.3 -13.8°
Enters shadow 13:23:41 10° 231° (SW) 2,016 4.3 -13.8°
